Location: Arcueil
(48.7999°N, 2.3326°E)
Time: 09:46:19
(UTC+00:00)

CZ-4 R/B - Pass Details

Date: 06 October 2023
Orbit: 521 x 578 km, 97.7° (Epoch: 07 December)

Event Time Altitude Azimuth Distance (km) Brightness Sun altitude
Exits shadow 17:34:19 - 112° (ESE) 2,552 4.2 -3.2°
Reaches altitude 10° 17:37:12 10° 84° (E) 1,764 3.2 -3.7°
Drops below altitude 10° 17:40:24 10° 34° (NE) 1,768 3.6 -4.2°
Enters shadow 18:49:16 -43° 165° (SSE) 9,471 7.5 -15.5°
Maximum altitude 19:13:01 72° 257° (WSW) 554 1.4 -19.3°
